Regional Weather Roundup
Issued by NWS

Home | Current Version | Previous Version | Graphics & Text | Print | Product List | Glossary On
Versions: 1 2 3 4 5 6 7 8 9 10 11 12 13 14 15 16 17 18 19 20 21 22 23 24 25 26 27 28 29 30 31 32 33 34 35 36 37 38 39 40 41 42 43 44 45 46 47 48 49 50
000
ASUS43 KFSD 240710
RWRSD

WEATHER ROUNDUP FOR SOUTH DAKOTA
NATIONAL WEATHER SERVICE SIOUX FALLS SD
200 AM CDT TUE OCT 24 2017

NOTE: "FAIR" INDICATES FEW OR NO CLOUDS BELOW 12,000 FEET WITH NO
SIGNIFICANT WEATHER AND/OR OBSTRUCTIONS TO VISIBILITY.


SDZ001>005-009-010-012>017-240800-
NORTHWEST AND NORTH CENTRAL SOUTH DAKOTA

CITY           SKY/WX    TMP DP  RH WIND       PRES   REMARKS
BUFFALO          N/A     41  23  48 NW18G28   30.36R
FAITH            N/A     37  26  64 W12       30.39S
MOBRIDGE       PTCLDY    43  31  62 NW15      30.28S
$$

SDZ012>016-024>037-041>051-057-063-072>074-240800-
SOUTHWEST AND SOUTH CENTRAL SOUTH DAKOTA

CITY           SKY/WX    TMP DP  RH WIND       PRES   REMARKS
RAPID CTY ARPT CLEAR     44  22  41 NW20      30.45R
PIERRE         CLEAR     45  29  53 NW21G30   30.30S
CUSTER         CLEAR     36  16  44 N10G22    30.44S
ELLSWORTH AFB  CLEAR     45  22  40 NW20G26   30.44R
PHILIP         CLEAR     41  27  57 W13       30.39R
PINE RIDGE     CLEAR     34  22  61 NW6       30.45R WCI  29
SPEARFISH      FAIR      41  21  45 W14       30.49S
WINNER         FAIR      44  28  53 NW16      30.30R
$$

SDZ004>011-016>023-039-040-240800-
NORTHEAST SOUTH DAKOTA

CITY           SKY/WX    TMP DP  RH WIND       PRES   REMARKS
ABERDEEN       CLEAR     40  29  64 N18G24    30.21R
WATERTOWN      CLEAR     36  30  79 N23G30    30.09R
BROOKINGS      MOCLDY    40  31  70 N18G26    30.07R
SISSETON         N/A     36  29  75 N20G28    30.12S
$$

SDZ017-020-022-023-036>040-048>070-240800-
SOUTHEAST SOUTH DAKOTA

CITY           SKY/WX    TMP DP  RH WIND       PRES   REMARKS
SIOUX FALLS    CLEAR     43  33  68 NW17G28   30.07S
HURON          CLEAR     42  32  67 NW18G29   30.18R
CHAMBERLAIN    CLEAR     47  33  57 NW21G35   30.26R
MITCHELL       CLEAR     45  32  60 NW21G31   30.18S
YANKTON        CLEAR     44  30  57 NW20G25   30.14S
$$

ABBREVIATIONS USED IN REMARKS
   TC - TEMPERATURE IN CELSIUS
  WCI - WIND CHILL INDEX
   HX - HEAT INDEX
  VSB - VISIBILITY





USA.gov is the U.S. government's official web portal to all federal, state and local government web resources and services.